Погода в Няксимволе

Погода в Няксимволе : погода сейчас, прогноз погоды и архив. Всё, что Вы хотите узнать о погоде в Няксимволе!

Хотите узнать прогноз погоды в Няксимволе? Тогда Вам сюда: Погода в Няксимволе

Поиск расширенной информации на нашем сайте:

Другие новости

Новости СМИ2

Главная страница сайта

Новости сайта

02.10.2013

Напоминаем, что на нашем новом сайте вы можете получить высокодетализированные прогнозы погоды по пунктам России, СНГ и мира (включающие важные для авиации метеовеличины, такие как направление и скорость ветра, видимость, явления погоды, количество и форма облачности, нижняя и верхняя граница облачности), а также ознакомиться с разнообразными материалами по авиационной метеорологии и подборкой полезных ссылок на эту тему.

Сайт Метеоцентр.Азия посвящён разработке технологий оптимизации авиаметеорологического обслуживания, включая проектирование и перспективное создание нескольких автоматизированных авиаметеорологических систем:
- система выпуска высокодетальных прогностических карт явлений погоды для нижнего воздушного пространства по России и ближнему зарубежью;
- система верификации прогнозов TAF (выпускаемых синоптиками официальных АМСГ РФ и ближнего зарубежья) и AUTOTAF (выпускаемых сайтом Метеоцентр.Азия) - выявление ошибок, онлайн-сопоставление с фактической погодой METAR, автоматическое внесение коррективов в прогнозы при резком отклонении фактической погоды от прогноза, подсчёт оправдываемости прогнозов по элементам и в целом;
- система обработки, анализа и отображения авиаметеорологической информации для применения провайдерами метеорологической информации.


Погода в Няксимволе - сегодня

Время (UTC), дата Ветер
(°,м/с) 
Видим.   Явления Облачность Т
(°С)
Тd
(°С)
f(%) Тe
(°С)
Pmin
(гПа)
dP
(гПа)
Po
(мм)
O2
(г/м3)
Тmin Tmax R s Состояние
почвы
06 27.03.17 200 (Ю) 20000 м  {снег}  9/0 средняя 
[Ac As]
+0.6 -2.6 79 -1  989.8  0.1  738  297           
09 27.03.17 200 (Ю) 20000 м  {снег}  10/0 средняя 
[As op]
+1.6 -1.9 78 990.3  0.6  738  296           
12 27.03.17 230 (ЮЗ) 4{10}  20000 м  {снег}  6/3 300 м верхняя 
[Sc diur, vesp|Ci fib]
+2.5 -6.3 52 991.8  1.4  739  296           
15 27.03.17 190 (Ю) 3{10}  20000 м    10/10 300 м 
[St]
+1.2 -5.2 62 992.8  0.9  740  297    +2.9  0.0     
18 27.03.17 190 (Ю) 20000 м    10/10 300 м 
[St]
+0.7 -5.7 62 -1  992.5  -0.3  740  298           
21 27.03.17 190 (Ю) 20000 м    10/10 300 м 
[St]
+0.1 -6.3 62 -2  991.8  -0.7  739  298           
00 28.03.17 180 (Ю) 20000 м    9/9 300 м 
[Sc]
-0.7 -6.2 66 -3  991  -0.8  739  299           
03 28.03.17 180 (Ю) 20000 м    8/0 средняя 
[Ac As]
-0.1 -5.4 67 -2  990.7  -0.3  738  298  -0.7      46  равномерный
сухой снег
100% 
06 28.03.17 180 (Ю) 20000 м    10/6 600 м средняя 
[Cu hum|As trans]
+2.2 -5.4 57 990.4  -0.3  738  296           
09 28.03.17 200 (Ю) 3{11}  20000 м  слаб. ливневой дождь  10/10 600 м кучево-дожд. 
[Cb cap]
+2.6 -4.9 58 +1  990  -0.4  738  295           
12 28.03.17 210 (ЮЗ) 20000 м  {ливн. осадки}  10/10 1000 м кучево-дожд. 
[Cb cap]
+3.2 -5.4 53 +1  989.5  -0.5  737  294           
15 28.03.17 200 (Ю) 20000 м    10/10 600 м кучево-дожд. 
[Cb cap]
+2 -4.9 60 989.1  -0.4  737  295    +3.5  0.0     
18 28.03.17 130 (ЮВ) 20000 м  {ливн. осадки}  10/10 600 м кучево-дожд. 
[Cb cap]
-0.6 -2.4 88 988.1  -1.1  736  298           
21 28.03.17 180 (Ю) 20000 м    4/0 верхняя 
[Cs]
-1.6 -4.3 82 -3  986.9  -1.2  735  299           
00 29.03.17 200 (Ю) 20000 м    ясно 
-4.4 -5.6 91 -4  986.1  -0.8  735  302           
03 29.03.17 190 (Ю) 20000 м    9/9 600 м 
[Sc]
-3.2 -4.2 93 -3  986.4  0.3  735  300  -5.1    0.0  46  равномерный
сухой снег
100% 
06 29.03.17 220 (ЮЗ) 20000 м    9/5 1000 м верхняя 
[Sc diur, vesp|Cs]
+1.4 -3.7 69 986.4  0.2  735  295           
09 29.03.17 300 (СЗ) 20000 м    8/8 1000 м верхняя 
[Sc diur, vesp|Cs]
+2.3 -4.6 60 +1  987.5  736  295           
12 29.03.17 270 (З) 20000 м  {снег}  9/9 1000 м 
[Sc]
+2.6 -4.4 60 +1  989  1.5  737  295           
15 29.03.17 270 (З) 20000 м    9/6 1000 м верхняя 
[Sc|Cs]
-0.8 -7.8 59 -3  991.9  2.8  739  299    +4       
18 29.03.17 250 (З) 20000 м    10/0 средняя 
[As op]
-3.9 -10.5 60 -5  993.6  1.5  740  304           
21 29.03.17 тихо ()   20000 м    4/0 верхняя 
[Cs]
-8.7 -10.7 85 -9  994.2  0.5  741  309           
00 30.03.17 210 (ЮЗ) 20000 м    3/0 верхняя 
[Ci fib]
-11.3 -12.7 89 -11  994.3  741  313           
03 30.03.17 230 (ЮЗ) 20000 м    8/0 верхняя 
[Ci fib]
-9.3 -11.4 85 -9  994.5  0.3  741  310  -12.8      46  равномерный
сухой снег
100% 
06 30.03.17 330 (СЗ) 20000 м    3/0 верхняя 
[Ci fib]
-2.2 -11.2 50 -2  993.4  -0.9  740  302           
Время (UTC), дата Ветер
(°,м/с) 
Видим.   Явления Облачность Т
(°С)
Тd
(°С)
f(%) Тe
(°С)
Pmin
(гПа)
dP
(гПа)
Po
(мм)
O2
(г/м3)
Тmin Tmax R s Состояние
почвы

Для получения пояснительной информации подведите курсор к названию столбца.

ПОГОДА в Няксимволе - архив

Всё, что Вы хотите узнать о погоде в Няксимволе - удобно и подробно!

Выберите нужную дату (начиная с 1 января 2015* года) и нажмите кнопку "Найти".
Будут отображены архивные сводки погоды по пункту Няксимволь, начиная с указанной даты.


Отображать данные в формате CSV (для использования в таблицах Excel)


Внимание! Наш архив погоды предназначен исключительно для личного некоммерческого использования в познавательных целях. Если Вам необходимы официальные справки о состоянии погоды (для производственных, юридических, коммерческих и т.п. целей), обращайтесь в органы Росгидромета.

*Примечание: данная дата относится к архиву по метеостанциям СССР (Россия, СНГ, Балтия).
Архив по метеостанциям Зарубежной Европы и Азии (кроме Китая) хранится 10 дней, по другим регионам земного шара (Китай, Африка, Америка, Австралия, Океания) - 1 день.

Няксимволь - район местоположения метеостанции


Название, широта, долгота, высота метеостанции:
Няксимволь 62.4°ш. 60.9°д. 51 м над ур. моря [Российская Федерация]

Дополнительная информация

В oтличие oт бoльшинства пoгoдных сайтoв мы публикуем пoдрoбную метеoинфoрмацию в детальнoм прoфессиoнальнoм фoрмате.

Характеристики температуры и влажнoсти вoздуха измеряются на высoте 2 м в тени вдали oт зданий и деревьев.
Скoрoсть ветра измеряется на высoте 10 м (на урoвне рoста челoвека скoрoсть ветра ниже в 1.5-2 раза). Если метеoстанция нахoдится в гoрoде или в лесу, тo скoрoсть ветра занижена на 2-4 м/с пo сравнению с oткрытым местoм. Скoрoсть ветра над акватoриями крупных рек и oзёр, а также на вершинах хoлмoв на 2-5 м/с выше, чем в oбычных услoвиях.
Атмoсфернoе давление в разных тoчках местнoсти мoжет значительнo oтличаться oт давления на метеoстанции, в зависимoсти oт услoвий рельефа (при пoдъёме на 10 м давление пoнижается примернo на 1 мм рт.ст.).